Location: Newark
(46.7333°N, 6.6667°E)
Time: 20:22:47
(UTC+00:00)

N. Korean satellite - Pass Details

Date: 26 September 2020
Orbit: 452 x 505 km, 97.2° (Epoch: 28 October)

Event Time Altitude Azimuth Distance (km) Brightness Sun altitude
Rises 04:51:19 0° 17° (NNE) 2,598 10.6 -6.7°
Reaches altitude 10° 04:53:28 10° 23° (NNE) 1,702 9.7 -6.4°
Maximum altitude 04:57:01 48° 99° (E) 651 7.8 -5.8°
Drops below altitude 10° 05:00:29 10° 175° (S) 1,658 9.3 -5.2°
Sets 05:02:34 0° 181° (S) 2,523 10.2 -4.8°
